Location: Praha
(50.0830°N, 14.4670°E)
Time: 06:58:06
(UTC+02:00)

ISS - Pass Details

Date: 26 May 2023
Orbit: 411 x 418 km, 51.6° (Epoch: 07 June)

Event Time Altitude Azimuth Distance (km) Brightness Sun altitude
Rises 22:44:56 0° 285° (WNW) 2,361 0.8 -12.8°
Reaches altitude 10° 22:47:18 10° 270° (W) 1,496 -0.5 -13.0°
Maximum altitude 22:50:00 22° 217° (SW) 955 -2.2 -13.2°
Enters shadow 22:51:07 19° 188° (S) 1,067 -2.2 -13.3°
